Lid_Strength_Index
6 7 9 7 6 8 10 11 13 12 8 9 10 10 9 8 7 8 7 6 5 4 3 2 1 1 1 1 1 0 0 -0 0 0 1 1 1 0 -1 -0 -1 -2 -2 -3
6 8 6 5 6 7 8 11 12 10 8 9 10 11 9 8 8 6 7 6 6 5 3 3 2 2 1 1 1 1 1 0 -0 0 -0 0 0 0 -0 -0 -2 -3 -2 -2
8 6 5 6 7 8 7 9 10 11 9 8 10 12 11 8 7 7 6 5 6 5 5 3 3 2 2 2 1 1 1 0 0 -0 0 0 0 0 0 1 -0 -1 -2 -2
6 5 6 6 7 7 8 6 8 10 11 15 9 16 12 9 9 8 7 6 6 5 5 4 3 3 2 2 1 1 1 0 0 -0 0 0 1 2 1 0 0 -0 -2 -2
7 6 7 7 7 6 7 6 7 8 10 10 11 14 12 10 11 10 8 7 6 5 4 4 3 2 2 1 1 1 1 1 -0 -0 -0 -0 1 1 1 0 1 -0 -1 -2
6 4 5 6 5 5 5 6 7 7 9 13 10 13 14 13 11 9 8 6 5 5 4 4 3 2 2 1 1 1 1 1 0 0 0 0 1 1 1 1 1 1 0 -0
7 6 5 5 6 5 6 8 12 13 13 14 11 12 11 9 8 7 8 6 5 5 4 5 3 4 3 2 1 1 1 1 1 1 1 0 0 1 1 0 1 1 1 0
9 10 7 6 6 7 7 8 11 16 16 15 12 14 14 7 6 6 6 5 5 5 4 4 3 3 2 2 2 2 2 2 1 1 1 0 0 1 0 0 1 1 1 0
9 9 6 5 5 6 7 9 7 11 11 13 14 12 10 7 7 7 7 6 6 5 5 4 4 3 2 2 2 2 2 1 1 1 1 1 0 0 -1 0 -0 -0 0 0
7 9 7 6 5 5 7 6 10 10 15 17 15 16 14 13 9 8 7 7 6 5 4 4 4 3 3 2 2 1 1 1 1 1 1 1 0 0 -1 -0 1 1 -0 -0
6 7 8 6 7 8 7 8 8 9 14 16 18 18 10 10 9 9 7 6 5 5 4 4 4 3 2 2 2 2 2 1 1 1 1 1 1 0 0 0 0 0 -1 -0
5 7 9 8 6 5 6 7 7 11 14 12 12 16 9 8 7 7 7 6 5 5 4 4 4 3 3 2 2 2 2 2 1 1 1 1 1 1 1 0 0 -0 -0 -1
6 8 10 10 8 6 7 8 8 8 10 13 15 16 8 7 7 7 7 6 5 5 4 4 4 4 3 3 3 2 2 2 1 1 1 1 1 1 1 0 0 -0 0 -0
4 7 9 13 11 9 10 9 9 10 13 14 13 13 9 8 8 8 8 6 6 5 4 4 4 4 3 3 4 2 2 2 1 1 1 1 1 1 1 0 1 0 -1 -1
5 9 10 10 9 9 10 10 11 13 11 13 12 11 11 8 8 8 7 7 6 6 5 4 4 4 3 3 3 2 2 2 1 1 2 2 2 -0 -0 -0 0 -0 -0 -1
5 9 9 10 9 10 11 10 10 9 10 10 10 11 9 7 7 7 7 7 7 6 5 4 4 4 4 3 3 2 2 1 1 1 2 1 1 1 0 -0 -0 -0 -0 -0
6 8 9 13 11 12 14 12 11 10 9 10 13 10 8 8 8 8 7 7 7 6 5 5 4 3 4 3 2 2 2 1 1 1 1 1 1 1 1 1 1 1 1 0
6 7 8 14 12 17 10 7 7 8 9 8 9 9 8 8 7 6 6 6 6 5 5 4 4 3 3 2 2 1 1 1 2 2 2 1 2 2 1 1 1 1 1 1
5 7 9 13 13 12 10 10 9 8 11 8 9 8 7 7 6 7 5 4 5 4 4 3 3 3 2 2 2 2 2 2 2 2 2 2 2 2 1 2 2 1 1 2
5 5 9 9 13 17 12 7 5 6 14 8 8 8 8 7 10 9 5 4 4 3 3 3 3 2 2 2 2 2 3 3 3 2 2 1 1 2 2 3 2 3 2 3
9 9 10 9 11 11 7 6 5 11 13 7 7 7 8 8 7 5 4 4 4 3 3 2 2 3 2 2 2 3 3 3 2 2 2 1 1 1 1 1 1 2 2 2
12 10 14 11 11 14 6 6 10 9 6 6 6 7 7 6 5 5 4 4 4 4 3 3 3 3 2 2 2 3 3 2 3 3 3 2 1 1 1 1 1 1 2 2
10 8 9 8 10 5 4 5 4 5 6 6 6 5 5 5 5 5 4 4 3 3 3 3 3 3 2 2 2 3 4 3 2 2 2 2 1 1 1 2 2 2 2 2
6 4 7 6 6 5 5 4 3 3 5 5 4 4 4 5 4 4 4 4 3 3 3 2 3 3 3 2 2 1 2 2 1 2 2 2 2 2 1 1 1 2 3 2
6 5 6 6 5 5 4 4 3 3 3 3 3 3 3 3 4 4 4 4 3 3 2 2 3 3 2 2 1 1 1 1 2 2 2 2 2 2 3 7 8 6 9 9
5 5 7 8 4 5 4 3 3 3 3 3 3 3 3 3 3 3 3 3 3 3 2 2 2 2 2 1 1 1 0 1 1 2 3 2 1 1 2 4 8 11 11 11